Marion, IN

3:37 PM EDT on March 30, 2017 (GMT -0400)
Marion Municipal

Weather History for KMZZ - October, 2012

Change the Weather History Date:

Saturday, October 27, 2012

  Actual Average (KMIE) Record (KMIE)
Temperature  
Mean Temperature 42 °F -  
Max Temperature 50 °F 61 °F 80 °F (2014)
Min Temperature 33 °F 39 °F 20 °F (1962)
Degree Days  
Heating Degree Days 24    
Moisture  
Dew Point 31 °F    
Average Humidity 66    
Maximum Humidity 84    
Minimum Humidity 41    
Precipitation  
Precipitation 0.00 in - - ()
Sea Level Pressure  
Sea Level Pressure 30.18 in    
Wind  
Wind Speed 9 mph (North)    
Max Wind Speed 16 mph    
Max Gust Speed 24 mph    
Visibility 8 miles    
Events Snow    
Averages and records for this station are not official NWS values.
T = Trace of Precipitation, MM = Missing Value Source: NWS Daily Summary

Daily Weather History Graph

Daily Weather History Graph

Search for Another Location

Airport or City:

Trip Planner

Search our weather history database for the weather conditions in past years. The results will help you decide how hot, cold, wet, or windy it might be!

Date:

Astronomy

Oct. 27, 2012 Rise Set
Actual Time 8:07 AM EDT 6:45 PM EDT
Civil Twilight 7:39 AM EDT 7:13 PM EDT
Nautical Twilight 7:07 AM EDT 7:45 PM EDT
Astronomical Twilight 6:35 AM EDT 8:16 PM EDT
Moon 5:30 PM EDT (10/27) 6:01 AM EDT (10/27)
Length of Visible Light 11h 33m
Length of Day
10h 37m
Waxing Gibbous, 96% of the Moon is Illuminated
Oct 27
Waxing Gibbous
Oct 29
Full
Nov 6
Last Quarter
Nov 13
New
Nov 20
First Quarter

Hourly Weather History & Observations

Time (EDT) Temp. Windchill Dew Point Humidity Pressure Visibility Wind Dir Wind Speed Gust Speed Precip Events Conditions
12:15 AM 40.6 °F 35.4 °F 32.9 °F 74% 30.21 in 7.0 mi North 8.1 mph - N/A   Mostly Cloudy
12:35 AM 40.1 °F 34.1 °F 32.4 °F 74% 30.21 in 10.0 mi North 9.2 mph - N/A   Scattered Clouds
1:15 AM 39.0 °F 33.4 °F 32.0 °F 76% 30.20 in 10.0 mi North 8.1 mph - N/A   Clear
1:35 AM 38.5 °F 32.7 °F 32.0 °F 78% 30.20 in 5.0 mi North 8.1 mph - N/A   Haze
1:55 AM 38.3 °F 31.9 °F 32.0 °F 78% 30.19 in 10.0 mi North 9.2 mph - N/A   Clear
2:15 AM 37.8 °F 31.3 °F 32.0 °F 80% 30.19 in 7.0 mi North 9.2 mph - N/A   Clear
2:35 AM 37.8 °F 31.3 °F 31.6 °F 79% 30.19 in 7.0 mi North 9.2 mph - N/A   Clear
2:55 AM 37.4 °F 30.8 °F 31.6 °F 80% 30.20 in 10.0 mi North 9.2 mph - N/A   Clear
3:15 AM 37.0 °F 31.0 °F 31.6 °F 81% 30.20 in 7.0 mi North 8.1 mph - N/A   Clear
3:35 AM 36.9 °F 30.1 °F 31.3 °F 80% 30.19 in 10.0 mi North 9.2 mph - N/A   Clear
4:15 AM 36.5 °F 29.2 °F 30.9 °F 80% 30.18 in 10.0 mi North 10.4 mph - N/A   Clear
4:35 AM 36.5 °F 29.7 °F 30.7 °F 80% 30.18 in 10.0 mi North 9.2 mph - N/A   Clear
4:55 AM 36.5 °F 29.7 °F 30.4 °F 78% 30.17 in 5.0 mi North 9.2 mph - N/A   Haze
5:15 AM 36.1 °F 29.9 °F 30.2 °F 79% 30.18 in 3.0 mi North 8.1 mph - N/A Snow Light Snow
5:35 AM 35.6 °F 28.6 °F 30.2 °F 81% 30.18 in 10.0 mi North 9.2 mph - N/A   Clear
6:15 AM 35.4 °F 29.0 °F 30.2 °F 81% 30.19 in 4.0 mi North 8.1 mph - N/A   Clear
6:35 AM 35.1 °F 28.6 °F 30.0 °F 82% 30.19 in 3.0 mi North 8.1 mph - N/A   Haze
6:55 AM 35.1 °F 30.1 °F 29.8 °F 81% 30.19 in 10.0 mi North 5.8 mph - N/A   Clear
7:15 AM 34.9 °F 29.9 °F 29.7 °F 81% 30.19 in 7.0 mi North 5.8 mph - N/A   Clear
7:35 AM 34.5 °F 29.4 °F 29.7 °F 82% 30.20 in 4.0 mi North 5.8 mph - N/A Snow Light Snow
7:55 AM 34.2 °F 27.5 °F 29.7 °F 84% 30.21 in 3.0 mi North 8.1 mph - N/A Snow Light Snow
8:15 AM 34.2 °F 29.0 °F 29.3 °F 82% 30.21 in 10.0 mi North 5.8 mph - N/A   Clear
8:35 AM 33.8 °F 27.7 °F 29.3 °F 84% 30.21 in 10.0 mi North 6.9 mph - N/A   Clear
8:55 AM 34.2 °F 28.2 °F 29.7 °F 84% 30.21 in 10.0 mi North 6.9 mph - N/A   Clear
9:15 AM 35.1 °F 27.9 °F 30.2 °F 82% 30.21 in 5.0 mi NNE 9.2 mph - N/A   Haze
9:35 AM 36.5 °F 29.2 °F 30.7 °F 80% 30.22 in 10.0 mi North 10.4 mph - N/A   Clear
9:55 AM 38.1 °F 31.2 °F 31.6 °F 77% 30.22 in 10.0 mi North 10.4 mph - N/A   Scattered Clouds
10:15 AM 39.4 °F 31.8 °F 31.8 °F 74% 30.21 in 5.0 mi NE 12.7 mph 16.1 mph N/A   Haze
10:35 AM 40.8 °F 34.1 °F 32.0 °F 71% 30.21 in 10.0 mi NNE 11.5 mph - N/A   Clear
10:55 AM 42.1 °F 35.2 °F 32.2 °F 68% 30.21 in 4.0 mi NNE 12.7 mph - N/A   Haze
11:35 AM 44.4 °F 38.6 °F 32.7 °F 64% 30.21 in 10.0 mi NNE 11.5 mph - N/A   Clear
11:55 AM 45.5 °F 39.9 °F 33.4 °F 63% 30.21 in 7.0 mi North 11.5 mph 18.4 mph N/A   Clear
12:15 PM 46.4 °F 40.7 °F 33.8 °F 62% 30.21 in 10.0 mi NNE 12.7 mph 18.4 mph N/A   Clear
12:35 PM 47.1 °F - 33.3 °F 59% 30.21 in 10.0 mi North 12.7 mph 18.4 mph N/A   Clear
12:55 PM 47.7 °F - 33.4 °F 58% 30.20 in 10.0 mi NNE 12.7 mph 19.6 mph N/A   Clear
1:15 PM 48.2 °F - 34.0 °F 58% 30.19 in 7.0 mi North 16.1 mph 19.6 mph N/A   Clear
1:35 PM 48.4 °F - 33.1 °F 56% 30.18 in 10.0 mi NNE 12.7 mph 24.2 mph N/A   Clear
1:55 PM 49.1 °F - 32.9 °F 54% 30.17 in 10.0 mi NNE 12.7 mph 20.7 mph N/A   Clear
2:15 PM 49.5 °F - 32.7 °F 53% 30.16 in 10.0 mi NNE 13.8 mph 18.4 mph N/A   Clear
2:35 PM 49.6 °F - 32.4 °F 51% 30.17 in 10.0 mi North 11.5 mph - N/A   Clear
2:55 PM 50.0 °F - 32.4 °F 51% 30.16 in 10.0 mi NNE 16.1 mph - N/A   Clear
3:15 PM 50.4 °F - 32.4 °F 50% 30.15 in 10.0 mi North 12.7 mph 17.3 mph N/A   Clear
3:35 PM 50.7 °F - 31.6 °F 48% 30.14 in 10.0 mi North 12.7 mph 18.4 mph N/A   Clear
3:55 PM 50.7 °F - 31.1 °F 47% 30.14 in 10.0 mi NNE 13.8 mph 19.6 mph N/A   Clear
4:15 PM 50.7 °F - 30.6 °F 46% 30.13 in 10.0 mi North 12.7 mph - N/A   Clear
4:35 PM 50.9 °F - 30.6 °F 46% 30.13 in 10.0 mi North 13.8 mph 18.4 mph N/A   Clear
4:55 PM 50.9 °F - 29.3 °F 43% 30.14 in 10.0 mi NNE 9.2 mph 19.6 mph N/A   Clear
5:15 PM 50.7 °F - 28.8 °F 43% 30.14 in 10.0 mi North 15.0 mph 18.4 mph N/A   Clear
5:35 PM 50.4 °F - 27.3 °F 41% 30.15 in 10.0 mi North 13.8 mph - N/A   Clear
5:55 PM 50.0 °F - 27.1 °F 41% 30.15 in 10.0 mi North 8.1 mph - N/A   Clear
6:15 PM 49.3 °F - 27.5 °F 43% 30.15 in 5.0 mi North 9.2 mph - N/A   Haze
6:35 PM 48.2 °F - 27.9 °F 45% 30.15 in 5.0 mi North 11.5 mph - N/A   Haze
6:55 PM 46.9 °F - 28.2 °F 48% 30.16 in 5.0 mi North 9.2 mph - N/A   Haze
7:15 PM 46.0 °F 41.9 °F 28.4 °F 50% 30.16 in 10.0 mi North 8.1 mph - N/A   Clear
7:35 PM 45.3 °F 41.6 °F 28.4 °F 52% 30.17 in 10.0 mi North 6.9 mph - N/A   Clear
7:55 PM 44.8 °F 41.0 °F 28.8 °F 53% 30.19 in 7.0 mi North 6.9 mph - N/A   Clear
8:15 PM 44.4 °F 40.5 °F 28.9 °F 55% 30.18 in 10.0 mi North 6.9 mph - N/A   Clear
8:35 PM 43.7 °F 39.7 °F 29.3 °F 57% 30.18 in 10.0 mi North 6.9 mph - N/A   Clear
8:55 PM 43.3 °F 39.9 °F 29.3 °F 58% 30.19 in 10.0 mi North 5.8 mph - N/A   Clear
9:15 PM 43.3 °F 40.7 °F 28.8 °F 56% 30.19 in 10.0 mi North 4.6 mph - N/A   Clear
9:35 PM 42.6 °F 39.0 °F 28.8 °F 58% 30.19 in 10.0 mi North 5.8 mph - N/A   Clear
9:55 PM 42.3 °F 36.8 °F 29.1 °F 60% 30.18 in 10.0 mi North 9.2 mph - N/A   Clear
10:15 PM 41.4 °F 36.8 °F 30.2 °F 65% 30.18 in 7.0 mi North 6.9 mph - N/A   Clear
10:35 PM 40.6 °F 35.4 °F 31.1 °F 69% 30.19 in 10.0 mi North 8.1 mph - N/A   Clear
10:55 PM 40.3 °F 34.9 °F 32.0 °F 72% 30.18 in 7.0 mi North 8.1 mph - N/A   Clear
11:15 PM 39.9 °F 33.9 °F 32.5 °F 75% 30.18 in 7.0 mi North 9.2 mph - N/A   Clear
11:35 PM 39.6 °F 34.0 °F 32.9 °F 77% 30.18 in 7.0 mi North 8.1 mph - N/A   Clear